Location: Biharia
(46.4333°N, 22.8000°E)
Time: 20:40:59
(UTC+00:00)

Feng Yun 1-1 Rocket - Pass Details

Date: 16 October 2021
Orbit: 830 x 933 km, 99.2° (Epoch: 29 November)

Event Time Altitude Azimuth Distance (km) Brightness Sun altitude
Rises 17:02:28 0° 164° (SSE) 3,387 7.2 -14.9°
Reaches altitude 10° 17:04:47 10° 165° (SSE) 2,467 6.4 -15.3°
Maximum altitude 17:10:16 86° 255° (WSW) 872 4.3 -16.2°
Drops below altitude 10° 17:15:57 10° 344° (NNW) 2,550 6.9 -17.2°
Sets 17:18:23 0° 345° (NNW) 3,509 7.7 -17.6°
